Regional Weather Roundup
Issued by NWS

Home | Current Version | Previous Version | Graphics & Text | Print | Product List | Glossary Off
Versions: 1 2 3 4 5 6 7 8 9 10 11 12 13 14 15 16 17 18 19 20 21 22 23 24 25 26 27 28 29 30 31 32 33 34 35 36 37 38 39 40 41 42 43 44 45 46 47 48 49 50

000
ASUS43 KMPX 262010
RWRMN
WEATHER ROUNDUP FOR MINNESOTA
NATIONAL WEATHER SERVICE TWIN CITIES/CHANHASSEN MN
200 PM CST MON JAN 26 2015


NOTE: "FAIR" INDICATES FEW OR NO CLOUDS BELOW 12,000 FEET WITH NO
SIGNIFICANT WEATHER AND/OR OBSTRUCTIONS TO VISIBILITY. N/A MEANS
CURRENT SKY AND/OR WEATHER CONDITIONS ARE NOT AVAILABLE.

MNZ060>063-068>070-262100-
   Twin Cities Metro

CITY           SKY/WX    TMP DP  RH WIND       PRES   REMARKS
TWIN CITIES    PTSUNNY   45  32  60 W16       29.72R
ST PAUL        CLOUDY    43  33  68 W12       29.73R
CRYSTAL        PTSUNNY   44  33  65 W9        29.72R
BLAINE         CLOUDY    46  36  66 NW12G17   29.71S
LAKEVILLE      SUNNY     41  34  75 W12       29.73R
EDEN PRAIRIE   MOSUNNY   44  32  62 NW10      29.73R
SOUTH ST PAUL  CLOUDY    44  32  63 NW10G17   29.72R
LAKE ELMO      MIX PCPN  41  34  75 NW9       29.72R
$$
MNZ001>005-007-008-013>017-022>024-027-028-262100-
   Northwest Minnesota

CITY           SKY/WX    TMP DP  RH WIND       PRES   REMARKS
BEMIDJI        CLOUDY    35  30  82 NW15G23   29.74R WCI  25
HALLOCK        CLOUDY    30  25  80 N16G26    29.86R WCI  19
ROSEAU         CLOUDY    30  25  80 N20       29.81R WCI  18
WARROAD        CLOUDY    30  25  80 NW13G20   29.80R WCI  20
THIEF RVR FALL CLOUDY    30  27  86 NW15      29.83R WCI  19
CROOKSTON      CLOUDY    30  28  93 N26       29.87R WCI  16
FOSSTON        CLOUDY    32  28  86 NW14      29.81R WCI  22
DETROIT LAKES  CLOUDY    34  32  93 NW26G35   29.82R WCI  21
MOORHEAD       CLOUDY    39  36  87 N18       29.86R
PARK RAPIDS    CLOUDY    38  29  70 NW21G29   29.74R
MAHNOMEN       CLOUDY    33  29  88 NW18G24   29.82R WCI  21
$$
MNZ006-009>011-018-025>026-262100-
   North Central Minnesota

CITY           SKY/WX    TMP DP  RH WIND       PRES   REMARKS
BAUDETTE         N/A     29  25  85 N18       29.75R WCI  16
FLAG ISLAND    CLOUDY    27  21  80 N21       29.77R WCI  13
INTL FALLS     CLOUDY    29  24  82 N15       29.72R WCI  18
WASKISH        CLOUDY    34  28  80 NW12G21   29.75R WCI  25
BIG FORK       LGT SNOW  34  30  86 NW8       29.70R WCI  27
LONGVILLE      CLOUDY    37  28  70 NW10G21   29.71R
GRAND RAPIDS   CLOUDY    36  30  80 NW20      29.68R
CRANE LAKE     CLOUDY    27  25  93 N7        29.72R WCI  19
ORR            CLOUDY    28  25  86 NW7       29.66R WCI  21
COOK           CLOUDY    30  28  93 NW7       29.68R WCI  23
WALKER         CLOUDY    36  29  76 NW10      29.73R
$$
MNZ012-019>021-037-262100-
   Northeast Minnesota

CITY           SKY/WX    TMP DP  RH WIND       PRES   REMARKS
DULUTH         LGT SNOW  29  25  85 NW5       29.66R VSB 3/4 WCI  24
ELY            CLOUDY    25  21  86 CALM      29.67R
HIBBING        CLOUDY    30  26  85 CALM      29.66R FOG
EVELETH        LGT SNOW  30  28  93 CALM      29.67R
DULUTH HARBOR  CLOUDY    28  27  93 CALM      29.73R
TWO HARBORS    LGT SNOW  28  23  80 CALM      29.67R
SILVER BAY     LGT SNOW  27  23  86 CALM      29.67R
GRAND MARAIS     N/A     27  22  81 S3        29.72S
G MARAIS ARPRT FLURRIES  19  16  86 S3        29.65S
$$
MNZ029>031-032-039>041-046>048-054>057-064-262100-
   West Central Minnesota

CITY           SKY/WX    TMP DP  RH WIND       PRES   REMARKS
FERGUS FALLS   CLOUDY    37  30  75 N20G28    29.86R
WHEATON        SUNNY     43  34  70 NW17G26   29.87R
MORRIS         MOSUNNY   43  36  75 NW21G26   29.82R
ALEXANDRIA     CLOUDY    38  30  73 NW22G32   29.79R
ELBOW LAKE     CLOUDY    38  33  81 NW16G28   29.82R
WADENA         CLOUDY    36  28  75 NW20      29.77R
GLENWOOD       CLOUDY    37  34  87 NW14      29.79R
APPLETON       SUNNY     45  36  70 NW23G29   29.84R
BENSON         CLOUDY    43  34  70 N21G30    29.82R
ORTONVILLE     SUNNY     43  34  70 NW18G24   29.84S
MADISON        MOSUNNY   48  37  66 NW21G26   29.84S
WILLMAR        FAIR      43  34  70 NW18G30   29.82R
$$
MNZ033>034-036-042>043-049>051-058-059-262100-
   Central Minnesota

CITY           SKY/WX    TMP DP  RH WIND       PRES   REMARKS
ST CLOUD       CLOUDY    41  31  67 NW14G22   29.74R
SAUK CENTRE    CLOUDY    39  32  75 NW20      29.77R
PAYNESVILLE    PTSUNNY   38  32  81 W18G24    29.78R
AITKIN         CLOUDY    41  32  70 NW7       29.69R
PINE RIVER     CLOUDY    37  30  75 NW15      29.76R
BRAINERD       CLOUDY    39  30  70 NW15G24   29.72R
STAPLES        CLOUDY    37  30  75 NW20      29.75R
LONG PRAIRIE   CLOUDY    37  32  81 NW21G28   29.76R
LITTLE FALLS   CLOUDY    41  32  70 NW13G18   29.74R
LITCHFIELD     FAIR      43  36  75 W12G17    29.77R
BUFFALO        SUNNY     43  33  68 W14       29.74S
MAPLE LAKE     SUNNY     43  35  74 W14       29.75R
$$
MNZ037-044-045-052-053-262100-
   East Central Minnesota

CITY           SKY/WX    TMP DP  RH WIND       PRES   REMARKS
PRINCETON      CLOUDY    45  34  65 W10       29.72R
MORA           PTSUNNY   39  30  70 NW13G21   29.72R
CAMBRIDGE      CLOUDY    45  32  61 NW8       29.70R
RUSH CITY      CLOUDY    39  32  76 NW12      29.71R
MOOSE LAKE     CLOUDY    32  30  93 CALM      29.67R
HINCKLEY       CLOUDY    37  32  81 NW3       29.69R
CLOQUET        LGT SNOW  30  28  93 CALM      29.67R
MCGREGOR       CLOUDY    36  32  87 NW8       29.69R
$$
MNZ071>073-080-081-089-090-097-098-262100-
   Southwest Minnesota

CITY           SKY/WX    TMP DP  RH WIND       PRES   REMARKS
MONTEVIDEO     PTSUNNY   45  39  81 N14G30    29.83S
GRANITE FALLS  PTSUNNY   43  35  74 NW18G26   29.84S
CANBY          SUNNY     45  35  68 NW18G30   29.86S
MARSHALL       MOSUNNY   45  34  65 NW22G28   29.84F
REDWOOD FALLS  MOSUNNY   44  34  67 NW17G29   29.81R
OLIVIA         PTSUNNY   39  34  81 NW20G26   29.81R
PIPESTONE      SUNNY     43  36  75 NW18G25   29.85S
WINDOM         MOSUNNY   45  37  76 W20G26    29.82R
WORTHINGTON    SUNNY     43  36  75 NW23      29.84F
JACKSON        SUNNY     45  36  70 W24       29.82R
TRACY          MOSUNNY   46  38  73 NW22G30   29.83S
SLAYTON        SUNNY     42  35  75 NW21G29   29.83F
$$
MNZ065>067-074>077-082>085-091>093-262100-
   South Central Minnesota

CITY           SKY/WX    TMP DP  RH WIND       PRES   REMARKS
MANKATO        PTSUNNY   43  34  70 NW17G24   29.76S
NEW ULM        SUNNY     43  36  75 NW21G29   29.78S
ST JAMES       PTSUNNY   45  37  76 W23       29.81R
FAIRMONT       PTSUNNY   46  34  61 NW18G25   29.80R
GLENCOE        MOSUNNY   42  37  82 W12G17    29.75R
FARIBAULT      SUNNY     43  34  70 W16       29.74S
OWATONNA       PTSUNNY   39  34  81 W13G20    29.74S
WASECA         CLOUDY    41  36  81 NW15      29.76S
ALBERT LEA     PTSUNNY   45  37  76 NW12G17   29.75R
$$
MNZ078>079-086>088-094>096-262100-
   Southeast Minnesota

CITY           SKY/WX    TMP DP  RH WIND       PRES   REMARKS
ROCHESTER      MOSUNNY   37  32  82 NW15      29.72R
RED WING       CLOUDY    41  32  70 NW5       29.71S
STANTON        SUNNY     43  34  71 NW15      29.72R
DODGE CENTER   MOSUNNY   39  34  81 NW13      29.71S
WINONA         CLOUDY    30  27  86 SE8       29.74S WCI  23
AUSTIN         SUNNY     41  34  75 NW17G24   29.74R
PRESTON        CLOUDY    36  32  85 NW13      29.72S
$$
ABBREVIATIONS USED IN REMARKS
   TC - TEMPERATURES IN CELSIUS
  WCI - WIND CHILL INDEX
   HX - HEAT INDEX
  VSB - VISIBILITY
$$


USA.gov is the U.S. government's official web portal to all federal, state and local government web resources and services.